Location: N�rnberg
(49.4471°N, 11.0632°E)
Time: 16:48:55
(UTC+01:00)

ARIANE 6 FM1 Upper Stage - Pass Details

Date: 09 February 2026
Orbit: 523 x 607 km, 62.0° (Epoch: 7 March)

Event Time Altitude Azimuth Distance (km) Brightness Sun altitude
Rises 18:36:19 0° 310° (NW) 2,670 6.8 -12.0°
Reaches altitude 10° 18:39:20 10° 335° (NNW) 1,773 5.4 -12.5°
Maximum altitude 18:41:40 15° 11° (N) 1,480 4.6 -12.9°
Enters shadow 18:43:18 12° 38° (NE) 1,625 4.6 -13.1°
